Weather History for OKBK - April, 2014

Change the Weather History Date:

Friday, April 25, 2014

  Actual Average Record
Temperature  
Mean Temperature 84 °F -  
Max Temperature 99 °F 99 °F 107 °F (2002)
Min Temperature 69 °F 73 °F 46 °F (1997)
Cooling Degree Days 19    
Growing Degree Days 34 (Base 50)    
Moisture  
Dew Point 40 °F    
Average Humidity 19    
Maximum Humidity 35    
Minimum Humidity 6    
Precipitation  
Precipitation 0.00 in 0.01 in - ()
Sea Level Pressure  
Sea Level Pressure 29.86 in    
Wind  
Wind Speed 4 mph ()    
Max Wind Speed 12 mph    
Max Gust Speed -    
Visibility 5.4 miles    
Events      
Averages and records for this station are not official NWS values.
T = Trace of Precipitation, MM = Missing Value Source: Averaged Metar Reports

Daily Weather History Graph

Daily Weather History Graph

Search for Another Location

Airport or City:

Trip Planner

Search our weather history database for the weather conditions in past years. The results will help you decide how hot, cold, wet, or windy it might be!

Date:

Astronomy

Apr. 25, 2014 Rise Set
Actual Time 5:12 AM AST 6:20 PM AST
Civil Twilight 4:47 AM AST 6:45 PM AST
Nautical Twilight 4:18 AM AST 7:14 PM AST
Astronomical Twilight 3:47 AM AST 7:45 PM AST
Moon 2:25 AM AST (4/25) 2:35 PM AST (4/25)
Length of Visible Light 13h 57m
Length of Day
13h 08m
Waning Crescent, 18% of the Moon is Illuminated
Apr 25
Waning Crescent
Apr 29
New
May 7
First Quarter
May 14
Full
May 21
Last Quarter

Hourly Weather History & Observations

Time (AST) Temp. Dew Point Humidity Pressure Visibility Wind Dir Wind Speed Gust Speed Precip Events Conditions
12:00 AM 75 °F 42 °F 20% 29.86 in 6 mi South 4.6 mph - -  
12:00 AM 75.2 °F 41.0 °F 29% 29.86 in - South 4.6 mph - N/A   Clear
1:00 AM 69.8 °F 41.0 °F 35% 29.86 in - SW 3.5 mph - N/A   Clear
2:00 AM 71.6 °F 41.0 °F 33% 29.83 in - Calm Calm - N/A   Clear
3:00 AM 71 °F 41 °F 22% 29.85 in 6 mi South 5.8 mph - -   Clear
3:00 AM 71.6 °F 41.0 °F 33% 29.83 in - South 5.8 mph - N/A   Clear
4:00 AM 71.6 °F 39.2 °F 31% 29.86 in - South 3.5 mph - N/A   Clear
5:00 AM 71.6 °F 39.2 °F 31% 29.89 in 4.3 mi Calm Calm - N/A   Unknown
6:00 AM 72 °F 38 °F 18% 29.90 in 5 mi Calm Calm - -   Haze
6:00 AM 71.6 °F 37.4 °F 29% 29.89 in 5.0 mi Calm Calm - N/A   Unknown
7:00 AM 82.4 °F 37.4 °F 20% 29.92 in 5.0 mi West 3.5 mph - N/A   Unknown
8:00 AM 86.0 °F 41.0 °F 20% 29.92 in 5.0 mi West 5.8 mph - N/A   Unknown
9:00 AM 91 °F 41 °F 10% 29.94 in 5 mi NW 4.6 mph - -   Haze
9:00 AM 91.4 °F 41.0 °F 17% 29.95 in 5.0 mi NW 4.6 mph - N/A   Unknown
10:00 AM 95.0 °F 39.2 °F 14% 29.92 in - SW 3.5 mph - N/A   Clear
11:00 AM 95.0 °F 39.2 °F 14% 29.89 in - NNE 9.2 mph - N/A   Clear
12:00 PM 97 °F 38 °F 6% 29.87 in 6 mi NNE 11.5 mph - -   Clear
12:00 PM 96.8 °F 37.4 °F 13% 29.86 in - NNE 11.5 mph - N/A   Clear
1:00 PM 98.6 °F 39.2 °F 13% 29.86 in - North 8.1 mph - N/A   Clear
2:00 PM 98.6 °F 39.2 °F 13% 29.83 in - NNE 5.8 mph - N/A   Clear
3:00 PM 99 °F 38 °F 6% 29.81 in 6 mi SW 3.5 mph - -  
3:00 PM 98.6 °F 37.4 °F 12% 29.83 in - WSW 3.5 mph - N/A   Clear
4:00 PM 96.8 °F 42.8 °F 16% 29.80 in - SE 9.2 mph - N/A   Clear
5:00 PM 96.8 °F 42.8 °F 16% 29.80 in - ESE 8.1 mph - N/A   Clear
6:00 PM 94 °F 42 °F 9% 29.81 in 6 mi SE 8.1 mph - -   Clear
6:00 PM 93.2 °F 41.0 °F 16% 29.80 in - SE 8.1 mph - N/A   Clear
7:00 PM 89.6 °F 42.8 °F 20% 29.80 in - SSE 6.9 mph - N/A   Clear
8:00 PM 87.8 °F 44.6 °F 22% 29.83 in - SSE 6.9 mph - N/A   Clear
9:00 PM 86 °F 41 °F 12% 29.83 in 6 mi South 8.1 mph - -   Clear
9:00 PM 86.0 °F 41.0 °F 20% 29.83 in - South 8.1 mph - N/A   Clear
10:00 PM 82.4 °F 39.2 °F 21% 29.83 in - South 5.8 mph - N/A   Clear
11:00 PM 82.4 °F 39.2 °F 21% 29.83 in - South 5.8 mph - N/A   Clear